Location: Kuppenheim
(48.8299°N, 8.2568°E)
Time: 11:08:52
(UTC+00:00)

Cosmos 405 Rocket - Pass Details

Date: 20 June 2021
Orbit: 489 x 552 km, 81.3° (Epoch: 27 July)

Event Time Altitude Azimuth Distance (km) Brightness Sun altitude
Exits shadow 00:23:52 38° 181° (S) 757 3.0 -16.7°
Maximum altitude 00:25:09 80° 100° (E) 505 2.5 -16.6°
Drops below altitude 10° 00:28:51 10° 14° (NNE) 1,693 6.7 -16.5°
Sets 00:30:59 0° 13° (NNE) 2,583 8.1 -16.4°
